Вернуться в каталог

KUIPER-00519

АктивенСвязьLEO
NORAD 68890·PAYLOAD·🇺🇸 United States

Запущен Apr 28, 2026 с Cape Canaveral Space Force Station

Loading…

Ближайшие Пролёты (ближайшие 24 часа)

TLE

СвежийSource: CelesTrak SupGP

Эпоха: Sep 15, 2026, 05:15 UTC

1 68890C 26095AC  26258.21924769  .00000369  00000+0  48343-4 0  2587
2 68890  51.9016 200.1129 0000682  95.1013  28.1725 14.79916318    10

Отслеживайте KUIPER-00519 в реальном времени с AllMySat

Download on the App Store